| time (UTC) | temp C | wind direction | speed KPH | gust KPH | rain 1hr cm | rain 24hr cm | rain mn cm | humidity % | barometer mb |
| 20260505234438 | 17 | 185 | 0.0 | 0.0 | 0.00 | 0.00 | 0.00 | 66 | 1016.3 |
| 20260505233934 | 17 | 205 | 0.0 | 0.0 | 0.00 | 0.00 | 0.00 | 65 | 1016.5 |
| 20260505233432 | 17 | 206 | 0.0 | 0.0 | 0.00 | 0.00 | 0.00 | 65 | 1016.5 |
| 20260505232930 | 17 | 170 | 0.0 | 0.0 | 0.00 | 0.00 | 0.00 | 66 | 1016.6 |
| 20260505232427 | 17 | 201 | 0.0 | 0.0 | 0.00 | 0.00 | 0.00 | 66 | 1016.6 |
| 20260505231924 | 17 | 187 | 0.0 | 0.0 | 0.00 | 0.00 | 0.00 | 66 | 1016.6 |
| 20260505231422 | 17 | 203 | 0.0 | 1.6 | 0.00 | 0.00 | 0.00 | 66 | 1016.4 |
| 20260505230919 | 17 | 200 | 0.0 | 1.6 | 0.00 | 0.00 | 0.00 | 66 | 1016.4 |
| 20260505230417 | 17 | 196 | 0.0 | 1.6 | 0.00 | 0.00 | 0.00 | 66 | 1016.6 |
| 20260505225913 | 17 | 200 | 0.0 | 0.0 | 0.00 | 0.00 | 0.00 | 65 | 1016.5 |
| 20260505225411 | 17 | 132 | 0.0 | 0.0 | 0.00 | 0.00 | 0.00 | 65 | 1016.6 |
| 20260505224911 | 17 | 144 | 0.0 | 0.0 | 0.00 | 0.00 | 0.00 | 67 | 1016.6 |
| 20260505224409 | 17 | 182 | 0.0 | 1.6 | 0.00 | 0.00 | 0.00 | 66 | 1016.5 |
| 20260505223906 | 17 | 280 | 3.2 | 3.2 | 0.00 | 0.00 | 0.00 | 65 | 1016.6 |
| 20260505223403 | 17 | 176 | 0.0 | 0.0 | 0.00 | 0.00 | 0.00 | 67 | 1016.7 |
| 20260505222859 | 17 | 356 | 0.0 | 0.0 | 0.00 | 0.00 | 0.00 | 66 | 1016.6 |
| 20260505222355 | 17 | 178 | 0.0 | 0.0 | 0.00 | 0.00 | 0.00 | 69 | 1016.7 |
| 20260505221852 | 17 | 196 | 1.6 | 1.6 | 0.00 | 0.00 | 0.00 | 68 | 1016.8 |
| 20260505221349 | 17 | 174 | 0.0 | 0.0 | 0.00 | 0.00 | 0.00 | 68 | 1016.8 |
| 20260505220846 | 17 | 151 | 0.0 | 1.6 | 0.00 | 0.00 | 0.00 | 69 | 1016.8 |
| 20260505220343 | 17 | 331 | 3.2 | 4.8 | 0.00 | 0.00 | 0.00 | 68 | 1016.8 |
| 20260505215841 | 17 | 85 | 1.6 | 1.6 | 0.00 | 0.00 | 0.00 | 69 | 1016.9 |
| 20260505215339 | 17 | 130 | 0.0 | 0.0 | 0.00 | 0.00 | 0.00 | 68 | 1017.0 |
| 20260505214837 | 16 | 198 | 1.6 | 3.2 | 0.00 | 0.00 | 0.00 | 68 | 1016.8 |
| 20260505214334 | 16 | 334 | 3.2 | 4.8 | 0.00 | 0.00 | 0.00 | 69 | 1017.0 |
| 20260505213831 | 16 | 339 | 3.2 | 4.8 | 0.00 | 0.00 | 0.00 | 68 | 1017.1 |
| 20260505213329 | 17 | 152 | 0.0 | 0.0 | 0.00 | 0.00 | 0.00 | 68 | 1017.1 |
| 20260505212824 | 16 | 173 | 0.0 | 0.0 | 0.00 | 0.00 | 0.00 | 69 | 1017.3 |
| 20260505212322 | 16 | 359 | 3.2 | 4.8 | 0.00 | 0.00 | 0.00 | 69 | 1017.2 |
| 20260505211817 | 17 | 180 | 1.6 | 3.2 | 0.00 | 0.00 | 0.00 | 68 | 1017.2 |
| 20260505211316 | 16 | 141 | 0.0 | 0.0 | 0.00 | 0.00 | 0.00 | 69 | 1017.0 |
| 20260505210812 | 16 | 340 | 3.2 | 4.8 | 0.00 | 0.00 | 0.00 | 69 | 1017.1 |
| 20260505210309 | 16 | 71 | 4.8 | 4.8 | 0.00 | 0.00 | 0.00 | 69 | 1017.0 |
| 20260505205806 | 16 | 330 | 1.6 | 1.6 | 0.00 | 0.00 | 0.00 | 70 | 1017.1 |
| 20260505205305 | 16 | 114 | 3.2 | 3.2 | 0.00 | 0.00 | 0.00 | 69 | 1016.9 |
| 20260505204800 | 17 | 319 | 3.2 | 4.8 | 0.00 | 0.00 | 0.00 | 68 | 1016.9 |
| 20260505204258 | 17 | 302 | 3.2 | 3.2 | 0.00 | 0.00 | 0.00 | 65 | 1016.9 |
| 20260505203755 | 17 | 162 | 0.0 | 0.0 | 0.00 | 0.00 | 0.00 | 65 | 1017.1 |
| 20260505203252 | 18 | 199 | 1.6 | 1.6 | 0.00 | 0.00 | 0.00 | 64 | 1016.8 |
| 20260505202748 | 17 | 198 | 0.0 | 0.0 | 0.00 | 0.00 | 0.00 | 66 | 1016.9 |
| 20260505202244 | 17 | 155 | 1.6 | 1.6 | 0.00 | 0.00 | 0.00 | 69 | 1016.9 |
| 20260505201741 | 17 | 176 | 0.0 | 0.0 | 0.00 | 0.00 | 0.00 | 70 | 1017.0 |
| 20260505201239 | 16 | 203 | 1.6 | 1.6 | 0.00 | 0.00 | 0.00 | 69 | 1017.0 |
| 20260505200737 | 16 | 199 | 1.6 | 1.6 | 0.00 | 0.00 | 0.00 | 71 | 1017.1 |
| 20260505200234 | 16 | 257 | 1.6 | 1.6 | 0.00 | 0.00 | 0.00 | 71 | 1017.1 |
| 20260505195729 | 16 | 190 | 0.0 | 1.6 | 0.00 | 0.00 | 0.00 | 71 | 1017.4 |
| 20260505195227 | 16 | 189 | 1.6 | 1.6 | 0.00 | 0.00 | 0.00 | 72 | 1017.3 |
| 20260505194724 | 16 | 208 | 0.0 | 0.0 | 0.00 | 0.00 | 0.00 | 72 | 1017.4 |
| 20260505194220 | 16 | 193 | 0.0 | 0.0 | 0.00 | 0.00 | 0.00 | 72 | 1017.3 |
| 20260505193716 | 16 | 217 | 0.0 | 0.0 | 0.00 | 0.00 | 0.00 | 73 | 1017.3 |
| 20260505193213 | 16 | 171 | 1.6 | 1.6 | 0.00 | 0.00 | 0.00 | 71 | 1017.5 |
| 20260505192712 | 16 | 179 | 1.6 | 1.6 | 0.00 | 0.00 | 0.00 | 72 | 1017.5 |
| 20260505192209 | 16 | 213 | 1.6 | 3.2 | 0.00 | 0.00 | 0.00 | 72 | 1017.4 |
| 20260505191707 | 16 | 251 | 1.6 | 1.6 | 0.00 | 0.00 | 0.00 | 71 | 1017.2 |
| 20260505191205 | 16 | 180 | 1.6 | 1.6 | 0.00 | 0.00 | 0.00 | 71 | 1017.3 |
| 20260505190701 | 16 | 201 | 3.2 | 3.2 | 0.00 | 0.00 | 0.00 | 70 | 1017.3 |
| 20260505190201 | 16 | 188 | 0.0 | 0.0 | 0.00 | 0.00 | 0.00 | 72 | 1017.2 |
| 20260505185658 | 16 | 208 | 1.6 | 1.6 | 0.00 | 0.00 | 0.00 | 72 | 1017.4 |
| 20260505185154 | 16 | 218 | 0.0 | 1.6 | 0.00 | 0.00 | 0.00 | 72 | 1017.2 |
| 20260505184651 | 15 | 225 | 0.0 | 1.6 | 0.00 | 0.00 | 0.00 | 73 | 1017.3 |
| 20260505184148 | 15 | 202 | 3.2 | 3.2 | 0.00 | 0.00 | 0.00 | 73 | 1017.2 |
| 20260505183645 | 15 | 221 | 1.6 | 3.2 | 0.00 | 0.00 | 0.00 | 73 | 1017.3 |
| 20260505183142 | 15 | 165 | 0.0 | 0.0 | 0.00 | 0.00 | 0.00 | 75 | 1017.3 |
| 20260505182638 | 14 | 206 | 1.6 | 1.6 | 0.00 | 0.00 | 0.00 | 76 | 1017.3 |
| 20260505182136 | 15 | 201 | 1.6 | 1.6 | 0.00 | 0.00 | 0.00 | 75 | 1017.3 |
| 20260505181632 | 15 | 170 | 0.0 | 0.0 | 0.00 | 0.00 | 0.00 | 75 | 1017.4 |
| 20260505181129 | 15 | 222 | 0.0 | 0.0 | 0.00 | 0.00 | 0.00 | 75 | 1017.2 |
| 20260505180625 | 14 | 143 | 0.0 | 0.0 | 0.00 | 0.00 | 0.00 | 76 | 1017.3 |
| 20260505180123 | 14 | 152 | 1.6 | 1.6 | 0.00 | 0.00 | 0.00 | 76 | 1017.1 |
| 20260505175619 | 14 | 178 | 0.0 | 0.0 | 0.00 | 0.00 | 0.00 | 77 | 1017.2 |
| 20260505175115 | 14 | 227 | 1.6 | 1.6 | 0.00 | 0.00 | 0.00 | 76 | 1017.2 |
| 20260505174612 | 14 | 155 | 0.0 | 0.0 | 0.00 | 0.00 | 0.00 | 75 | 1017.1 |
| 20260505174108 | 14 | 166 | 0.0 | 0.0 | 0.00 | 0.00 | 0.00 | 75 | 1017.1 |
| 20260505173605 | 14 | 199 | 0.0 | 0.0 | 0.00 | 0.00 | 0.00 | 75 | 1017.0 |
| 20260505173102 | 14 | 345 | 3.2 | 3.2 | 0.00 | 0.00 | 0.00 | 74 | 1016.9 |
| 20260505172559 | 15 | 181 | 0.0 | 0.0 | 0.00 | 0.00 | 0.00 | 72 | 1016.8 |
| 20260505172056 | 15 | 251 | 1.6 | 3.2 | 0.00 | 0.00 | 0.00 | 71 | 1016.8 |
| 20260505171551 | 15 | 292 | 1.6 | 1.6 | 0.00 | 0.00 | 0.00 | 71 | 1016.7 |
| 20260505171048 | 15 | 139 | 0.0 | 0.0 | 0.00 | 0.00 | 0.00 | 71 | 1016.7 |
| 20260505170545 | 15 | 184 | 0.0 | 0.0 | 0.00 | 0.00 | 0.00 | 71 | 1016.9 |
| 20260505170042 | 14 | 184 | 0.0 | 0.0 | 0.00 | 0.00 | 0.00 | 72 | 1016.4 |
| 20260505165537 | 14 | 193 | 0.0 | 0.0 | 0.00 | 0.00 | 0.00 | 73 | 1016.7 |
| 20260505165032 | 14 | 165 | 0.0 | 1.6 | 0.00 | 0.00 | 0.00 | 72 | 1016.7 |
| 20260505164528 | 14 | 240 | 1.6 | 1.6 | 0.00 | 0.00 | 0.00 | 72 | 1016.7 |
| 20260505164026 | 14 | 197 | 0.0 | 0.0 | 0.00 | 0.00 | 0.00 | 71 | 1016.7 |
| 20260505163525 | 14 | 188 | 0.0 | 0.0 | 0.00 | 0.00 | 0.00 | 73 | 1016.8 |
| 20260505163021 | 14 | 189 | 0.0 | 0.0 | 0.00 | 0.00 | 0.00 | 73 | 1016.6 |
| 20260505162514 | 13 | 179 | 0.0 | 0.0 | 0.00 | 0.00 | 0.00 | 72 | 1016.5 |
| 20260505162011 | 13 | 170 | 0.0 | 0.0 | 0.00 | 0.00 | 0.00 | 74 | 1016.6 |
| 20260505161508 | 13 | 158 | 0.0 | 1.6 | 0.00 | 0.00 | 0.00 | 74 | 1016.6 |
| 20260505161005 | 13 | 174 | 0.0 | 0.0 | 0.00 | 0.00 | 0.00 | 76 | 1016.5 |
| 20260505160503 | 13 | 164 | 1.6 | 1.6 | 0.00 | 0.00 | 0.00 | 75 | 1016.4 |
| 20260505152940 | 13 | 162 | 0.0 | 0.0 | 0.00 | 0.00 | 0.00 | 80 | 1016.4 |
| 20260505152437 | 13 | 164 | 0.0 | 0.0 | 0.00 | 0.00 | 0.00 | 80 | 1016.4 |
| 20260505151937 | 12 | 176 | 0.0 | 0.0 | 0.00 | 0.00 | 0.00 | 81 | 1016.4 |
| 20260505151433 | 12 | 176 | 0.0 | 0.0 | 0.00 | 0.00 | 0.00 | 82 | 1016.3 |
| 20260505150931 | 12 | 151 | 0.0 | 0.0 | 0.00 | 0.00 | 0.00 | 81 | 1016.3 |
| 20260505150428 | 12 | 181 | 0.0 | 0.0 | 0.00 | 0.00 | 0.00 | 83 | 1016.2 |
| 20260505140357 | 11 | 182 | 0.0 | 0.0 | 0.00 | 0.00 | 0.00 | 86 | 1015.8 |
| 20260505124811 | 11 | 192 | 0.0 | 0.0 | 0.00 | 0.00 | 0.00 | 89 | 1015.7 |
| 20260505124308 | 11 | 197 | 0.0 | 0.0 | 0.00 | 0.00 | 0.00 | 89 | 1015.7 |
| 20260505123804 | 11 | 182 | 0.0 | 0.0 | 0.00 | 0.00 | 0.00 | 89 | 1015.6 |
| 20260505123300 | 11 | 182 | 0.0 | 0.0 | 0.00 | 0.00 | 0.00 | 89 | 1015.9 |
| 20260505122757 | 11 | 182 | 0.0 | 0.0 | 0.00 | 0.00 | 0.00 | 89 | 1015.8 |
| 20260505122255 | 11 | 175 | 0.0 | 0.0 | 0.00 | 0.00 | 0.00 | 89 | 1015.7 |
| 20260505121751 | 11 | 172 | 0.0 | 0.0 | 0.00 | 0.00 | 0.00 | 89 | 1015.9 |
| 20260505121247 | 11 | 170 | 0.0 | 0.0 | 0.00 | 0.00 | 0.00 | 89 | 1015.8 |
| 20260505120744 | 11 | 168 | 0.0 | 0.0 | 0.00 | 0.00 | 0.00 | 89 | 1015.8 |
| 20260505120240 | 11 | 168 | 0.0 | 0.0 | 0.00 | 0.00 | 0.00 | 89 | 1015.8 |
| 20260505115739 | 11 | 177 | 0.0 | 0.0 | 0.00 | 0.00 | 0.00 | 88 | 1015.7 |
| 20260505115236 | 11 | 177 | 0.0 | 0.0 | 0.00 | 0.00 | 0.00 | 88 | 1015.8 |
| 20260505114734 | 11 | 177 | 0.0 | 0.0 | 0.00 | 0.00 | 0.00 | 87 | 1015.9 |
| 20260505114230 | 11 | 176 | 0.0 | 0.0 | 0.00 | 0.00 | 0.00 | 87 | 1015.8 |
| 20260505113726 | 11 | 176 | 0.0 | 0.0 | 0.00 | 0.00 | 0.00 | 87 | 1015.9 |
| 20260505113223 | 11 | 182 | 0.0 | 0.0 | 0.00 | 0.00 | 0.00 | 86 | 1016.0 |
| 20260505112719 | 11 | 179 | 0.0 | 0.0 | 0.00 | 0.00 | 0.00 | 86 | 1015.9 |
| 20260505112217 | 11 | 184 | 0.0 | 0.0 | 0.00 | 0.00 | 0.00 | 85 | 1015.9 |
| 20260505111717 | 11 | 184 | 0.0 | 0.0 | 0.00 | 0.00 | 0.00 | 85 | 1016.1 |
| 20260505111213 | 11 | 183 | 0.0 | 0.0 | 0.00 | 0.00 | 0.00 | 84 | 1015.9 |
| 20260505110709 | 11 | 184 | 0.0 | 0.0 | 0.00 | 0.00 | 0.00 | 84 | 1015.9 |
| 20260505110207 | 11 | 174 | 0.0 | 0.0 | 0.00 | 0.00 | 0.00 | 83 | 1015.9 |
| 20260505102142 | 11 | 184 | 0.0 | 0.0 | 0.00 | 0.00 | 0.00 | 80 | 1016.0 |
| 20260505101641 | 11 | 186 | 0.0 | 0.0 | 0.00 | 0.00 | 0.00 | 80 | 1015.8 |
| 20260505101137 | 11 | 181 | 0.0 | 0.0 | 0.00 | 0.00 | 0.00 | 80 | 1016.1 |
| 20260505100633 | 11 | 174 | 0.0 | 0.0 | 0.00 | 0.00 | 0.00 | 81 | 1016.2 |
| 20260505100130 | 11 | 186 | 0.0 | 0.0 | 0.00 | 0.00 | 0.00 | 80 | 1016.0 |
| 20260505095626 | 11 | 187 | 0.0 | 0.0 | 0.00 | 0.00 | 0.00 | 79 | 1016.0 |
| 20260505095123 | 11 | 187 | 0.0 | 0.0 | 0.00 | 0.00 | 0.00 | 79 | 1016.1 |
| 20260505094619 | 12 | 190 | 0.0 | 0.0 | 0.00 | 0.00 | 0.00 | 78 | 1016.2 |
| 20260505094116 | 12 | 174 | 0.0 | 0.0 | 0.00 | 0.00 | 0.00 | 77 | 1016.1 |
| 20260505093612 | 12 | 183 | 0.0 | 0.0 | 0.00 | 0.00 | 0.00 | 76 | 1016.2 |
| 20260505093109 | 12 | 158 | 0.0 | 0.0 | 0.00 | 0.00 | 0.00 | 76 | 1016.2 |
| 20260505092607 | 12 | 191 | 1.6 | 1.6 | 0.00 | 0.00 | 0.00 | 75 | 1016.3 |
| 20260505092106 | 12 | 239 | 0.0 | 0.0 | 0.00 | 0.00 | 0.00 | 75 | 1016.2 |
| 20260505091602 | 12 | 189 | 0.0 | 0.0 | 0.00 | 0.00 | 0.00 | 74 | 1016.1 |
| 20260505091100 | 12 | 152 | 0.0 | 0.0 | 0.00 | 0.00 | 0.00 | 74 | 1016.1 |
| 20260505090557 | 12 | 189 | 0.0 | 0.0 | 0.00 | 0.00 | 0.00 | 74 | 1016.3 |
| 20260505090055 | 12 | 233 | 1.6 | 1.6 | 0.00 | 0.00 | 0.00 | 74 | 1016.3 |
| 20260505085553 | 12 | 179 | 0.0 | 1.6 | 0.00 | 0.00 | 0.00 | 73 | 1016.5 |
| 20260505085051 | 12 | 251 | 1.6 | 1.6 | 0.00 | 0.00 | 0.00 | 73 | 1016.6 |
| 20260505084549 | 12 | 297 | 1.6 | 3.2 | 0.00 | 0.00 | 0.00 | 73 | 1016.2 |
| 20260505084047 | 12 | 250 | 1.6 | 1.6 | 0.00 | 0.00 | 0.00 | 73 | 1016.7 |
| 20260505083543 | 12 | 195 | 0.0 | 0.0 | 0.00 | 0.00 | 0.00 | 73 | 1016.8 |
| 20260505083040 | 12 | 334 | 3.2 | 3.2 | 0.00 | 0.00 | 0.00 | 73 | 1016.9 |
| 20260505082536 | 12 | 275 | 0.0 | 1.6 | 0.00 | 0.00 | 0.00 | 72 | 1016.9 |
| 20260505082033 | 12 | 247 | 1.6 | 3.2 | 0.00 | 0.00 | 0.00 | 72 | 1016.8 |
| 20260505081529 | 12 | 20 | 4.8 | 6.4 | 0.00 | 0.00 | 0.00 | 71 | 1016.8 |
| 20260505081026 | 12 | 217 | 1.6 | 1.6 | 0.00 | 0.00 | 0.00 | 71 | 1016.9 |
| 20260505080522 | 12 | 216 | 3.2 | 3.2 | 0.00 | 0.00 | 0.00 | 71 | 1016.6 |
| 20260505080019 | 12 | 290 | 3.2 | 3.2 | 0.00 | 0.00 | 0.00 | 71 | 1016.8 |
| 20260505075515 | 12 | 184 | 0.0 | 0.0 | 0.00 | 0.00 | 0.00 | 71 | 1016.9 |
| 20260505075012 | 12 | 224 | 0.0 | 3.2 | 0.00 | 0.00 | 0.00 | 71 | 1016.9 |
| 20260505074510 | 12 | 286 | 3.2 | 3.2 | 0.00 | 0.00 | 0.00 | 71 | 1017.0 |
| 20260505074007 | 12 | 188 | 0.0 | 1.6 | 0.00 | 0.00 | 0.00 | 71 | 1016.8 |
| 20260505073504 | 12 | 274 | 3.2 | 3.2 | 0.00 | 0.00 | 0.00 | 71 | 1016.8 |
| 20260505073002 | 12 | 303 | 1.6 | 3.2 | 0.00 | 0.00 | 0.00 | 71 | 1016.9 |
| 20260505072457 | 12 | 202 | 3.2 | 3.2 | 0.00 | 0.00 | 0.00 | 72 | 1016.7 |
| 20260505071953 | 12 | 250 | 1.6 | 1.6 | 0.00 | 0.00 | 0.00 | 73 | 1016.8 |
| 20260505071449 | 12 | 298 | 1.6 | 3.2 | 0.00 | 0.00 | 0.00 | 73 | 1016.6 |
| 20260505070948 | 12 | 189 | 0.0 | 0.0 | 0.00 | 0.00 | 0.00 | 74 | 1016.6 |
| 20260505070444 | 12 | 234 | 3.2 | 3.2 | 0.00 | 0.00 | 0.00 | 74 | 1016.7 |
| 20260505065940 | 12 | 300 | 1.6 | 3.2 | 0.00 | 0.00 | 0.00 | 74 | 1016.4 |
| 20260505065436 | 12 | 237 | 1.6 | 1.6 | 0.00 | 0.00 | 0.00 | 75 | 1016.3 |
| 20260505064933 | 12 | 295 | 3.2 | 4.8 | 0.00 | 0.00 | 0.00 | 75 | 1016.7 |
| 20260505064430 | 12 | 302 | 3.2 | 3.2 | 0.00 | 0.00 | 0.00 | 75 | 1016.5 |
| 20260505063929 | 12 | 299 | 1.6 | 1.6 | 0.00 | 0.00 | 0.00 | 77 | 1016.5 |
| 20260505063425 | 12 | 195 | 0.0 | 0.0 | 0.00 | 0.00 | 0.00 | 78 | 1016.6 |
| 20260505062921 | 12 | 225 | 1.6 | 1.6 | 0.00 | 0.00 | 0.00 | 78 | 1016.5 |
| 20260505062419 | 12 | 351 | 3.2 | 4.8 | 0.00 | 0.00 | 0.00 | 79 | 1016.6 |
| 20260505061915 | 12 | 188 | 1.6 | 1.6 | 0.00 | 0.00 | 0.00 | 79 | 1016.5 |
| 20260505061414 | 12 | 199 | 0.0 | 0.0 | 0.00 | 0.00 | 0.00 | 79 | 1016.4 |
| 20260505060911 | 13 | 226 | 0.0 | 0.0 | 0.00 | 0.00 | 0.00 | 78 | 1016.4 |
| 20260505060408 | 13 | 299 | 1.6 | 1.6 | 0.00 | 0.00 | 0.00 | 78 | 1016.2 |
| 20260505055904 | 13 | 196 | 0.0 | 0.0 | 0.00 | 0.00 | 0.00 | 79 | 1016.3 |
| 20260505055400 | 13 | 195 | 0.0 | 0.0 | 0.00 | 0.00 | 0.00 | 79 | 1016.5 |
| 20260505054857 | 13 | 189 | 0.0 | 0.0 | 0.00 | 0.00 | 0.00 | 79 | 1016.4 |
| 20260505054354 | 13 | 239 | 1.6 | 1.6 | 0.00 | 0.00 | 0.00 | 80 | 1016.5 |
| 20260505053852 | 13 | 297 | 3.2 | 6.4 | 0.00 | 0.00 | 0.00 | 79 | 1016.5 |
| 20260505053349 | 13 | 288 | 1.6 | 1.6 | 0.00 | 0.00 | 0.00 | 80 | 1016.5 |
| 20260505052846 | 13 | 324 | 3.2 | 3.2 | 0.00 | 0.00 | 0.00 | 80 | 1016.7 |
| 20260505052343 | 13 | 254 | 3.2 | 3.2 | 0.00 | 0.00 | 0.00 | 80 | 1016.8 |
| 20260505051840 | 13 | 267 | 1.6 | 3.2 | 0.00 | 0.00 | 0.00 | 79 | 1017.0 |
| 20260505051337 | 13 | 247 | 0.0 | 1.6 | 0.00 | 0.00 | 0.00 | 78 | 1017.0 |
| 20260505050835 | 13 | 170 | 0.0 | 0.0 | 0.00 | 0.00 | 0.00 | 78 | 1017.0 |
| 20260505050334 | 13 | 194 | 0.0 | 0.0 | 0.00 | 0.00 | 0.00 | 78 | 1017.0 |
| 20260505041300 | 13 | 261 | 1.6 | 1.6 | 0.00 | 0.00 | 0.00 | 77 | 1016.6 |
| 20260505040758 | 13 | 231 | 1.6 | 1.6 | 0.00 | 0.00 | 0.00 | 76 | 1016.3 |
| 20260505040255 | 13 | 185 | 1.6 | 3.2 | 0.00 | 0.00 | 0.00 | 76 | 1016.4 |
| 20260505035752 | 13 | 194 | 1.6 | 1.6 | 0.00 | 0.00 | 0.00 | 76 | 1016.3 |
| 20260505035248 | 13 | 342 | 1.6 | 4.8 | 0.00 | 0.00 | 0.00 | 75 | 1016.2 |
| 20260505034745 | 13 | 311 | 1.6 | 1.6 | 0.00 | 0.00 | 0.00 | 75 | 1016.4 |
| 20260505034242 | 14 | 180 | 0.0 | 1.6 | 0.00 | 0.00 | 0.00 | 74 | 1016.2 |
| 20260505033738 | 14 | 316 | 3.2 | 3.2 | 0.00 | 0.00 | 0.00 | 73 | 1016.1 |
| 20260505033236 | 14 | 231 | 4.8 | 6.4 | 0.00 | 0.00 | 0.00 | 72 | 1016.1 |
| 20260505032734 | 14 | 204 | 3.2 | 3.2 | 0.00 | 0.00 | 0.00 | 72 | 1015.9 |
| 20260505032229 | 14 | 312 | 1.6 | 1.6 | 0.00 | 0.00 | 0.00 | 71 | 1015.9 |
| 20260505031727 | 15 | 272 | 1.6 | 1.6 | 0.00 | 0.00 | 0.00 | 71 | 1015.8 |
| 20260505031223 | 15 | 284 | 1.6 | 3.2 | 0.00 | 0.00 | 0.00 | 70 | 1015.9 |
| 20260505030720 | 15 | 301 | 3.2 | 4.8 | 0.00 | 0.00 | 0.00 | 69 | 1015.8 |
| 20260505030216 | 15 | 318 | 3.2 | 4.8 | 0.00 | 0.00 | 0.00 | 69 | 1015.8 |
| 20260505025712 | 15 | 357 | 8.0 | 11.3 | 0.00 | 0.00 | 0.00 | 68 | 1015.9 |
| 20260505025211 | 15 | 262 | 3.2 | 4.8 | 0.00 | 0.00 | 0.00 | 67 | 1015.8 |
| 20260505024709 | 15 | 229 | 3.2 | 3.2 | 0.00 | 0.00 | 0.00 | 67 | 1015.8 |
| 20260505024205 | 15 | 264 | 1.6 | 1.6 | 0.00 | 0.00 | 0.00 | 66 | 1015.8 |
| 20260505023703 | 15 | 244 | 1.6 | 1.6 | 0.00 | 0.00 | 0.00 | 66 | 1015.7 |
| 20260505023200 | 15 | 352 | 4.8 | 4.8 | 0.00 | 0.00 | 0.00 | 66 | 1015.7 |
| 20260505022658 | 15 | 316 | 3.2 | 3.2 | 0.00 | 0.00 | 0.00 | 66 | 1016.0 |
| 20260505022154 | 15 | 202 | 3.2 | 6.4 | 0.00 | 0.00 | 0.00 | 65 | 1015.6 |
| 20260505021651 | 15 | 318 | 4.8 | 4.8 | 0.00 | 0.00 | 0.00 | 64 | 1015.8 |
| 20260505021148 | 15 | 48 | 1.6 | 1.6 | 0.00 | 0.00 | 0.00 | 62 | 1015.8 |
| 20260505020643 | 16 | 284 | 1.6 | 1.6 | 0.00 | 0.00 | 0.00 | 61 | 1015.8 |
| 20260505020139 | 16 | 194 | 0.0 | 1.6 | 0.00 | 0.00 | 0.00 | 59 | 1015.6 |
| 20260505015637 | 16 | 248 | 3.2 | 3.2 | 0.00 | 0.00 | 0.00 | 59 | 1015.6 |
| 20260505015133 | 16 | 238 | 1.6 | 1.6 | 0.00 | 0.00 | 0.00 | 59 | 1015.5 |
| 20260505014630 | 16 | 334 | 4.8 | 6.4 | 0.00 | 0.00 | 0.00 | 59 | 1015.8 |
| 20260505014127 | 16 | 350 | 6.4 | 11.3 | 0.00 | 0.00 | 0.00 | 58 | 1015.6 |
| 20260505013625 | 16 | 341 | 6.4 | 11.3 | 0.00 | 0.00 | 0.00 | 59 | 1015.8 |
| 20260505013121 | 16 | 322 | 6.4 | 11.3 | 0.00 | 0.00 | 0.00 | 59 | 1015.7 |
| 20260505012615 | 16 | 280 | 4.8 | 6.4 | 0.00 | 0.00 | 0.00 | 60 | 1015.5 |
| 20260505012111 | 17 | 296 | 4.8 | 4.8 | 0.00 | 0.00 | 0.00 | 59 | 1015.7 |
| 20260505011607 | 16 | 355 | 3.2 | 4.8 | 0.00 | 0.00 | 0.00 | 60 | 1015.7 |
| 20260505011104 | 17 | 188 | 1.6 | 3.2 | 0.00 | 0.00 | 0.00 | 59 | 1015.8 |
| 20260505010559 | 17 | 222 | 4.8 | 6.4 | 0.00 | 0.00 | 0.00 | 59 | 1015.7 |
| 20260505010056 | 17 | 341 | 6.4 | 9.7 | 0.00 | 0.00 | 0.00 | 59 | 1015.9 |
| 20260505005552 | 17 | 310 | 3.2 | 3.2 | 0.00 | 0.00 | 0.00 | 60 | 1015.9 |
| 20260505005050 | 17 | 319 | 6.4 | 6.4 | 0.00 | 0.00 | 0.00 | 61 | 1016.1 |
| 20260505004546 | 17 | 227 | 4.8 | 6.4 | 0.00 | 0.00 | 0.00 | 61 | 1015.9 |
| 20260505004043 | 17 | 199 | 0.0 | 1.6 | 0.00 | 0.00 | 0.00 | 61 | 1016.0 |
| 20260505003541 | 17 | 284 | 3.2 | 4.8 | 0.00 | 0.00 | 0.00 | 61 | 1015.9 |
| 20260505003038 | 17 | 227 | 0.0 | 0.0 | 0.00 | 0.00 | 0.00 | 61 | 1016.0 |
| 20260505002537 | 17 | 221 | 3.2 | 4.8 | 0.00 | 0.00 | 0.00 | 63 | 1016.0 |
| 20260505002032 | 16 | 36 | 1.6 | 1.6 | 0.00 | 0.00 | 0.00 | 64 | 1016.0 |
| 20260505001529 | 16 | 311 | 3.2 | 4.8 | 0.00 | 0.00 | 0.00 | 63 | 1016.0 |
| 20260505001026 | 16 | 273 | 1.6 | 3.2 | 0.00 | 0.00 | 0.00 | 64 | 1016.0 |
| 20260505000523 | 16 | 214 | 1.6 | 1.6 | 0.00 | 0.00 | 0.00 | 65 | 1016.1 |
| 20260505000021 | 16 | 170 | 0.0 | 0.0 | 0.00 | 0.00 | 0.00 | 64 | 1016.0 |
| 20260504235517 | 16 | 162 | 1.6 | 1.6 | 0.00 | 0.00 | 0.00 | 65 | 1016.0 |
| 20260504235014 | 16 | 329 | 6.4 | 6.4 | 0.00 | 0.00 | 0.00 | 65 | 1015.9 |
| 20260504234511 | 17 | 266 | 1.6 | 1.6 | 0.00 | 0.00 | 0.00 | 64 | 1015.9 |